Regional Weather Roundup
Issued by NWS

Home | Current Version | Previous Version | Text Only | Print | Product List | Glossary On
Versions: 1 2 3 4 5 6 7 8 9 10 11 12 13 14 15 16 17 18 19 20 21 22 23 24 25 26 27 28 29 30 31 32 33 34 35 36 37 38 39 40 41 42 43 44 45 46 47 48 49 50
000
ASUS43 KLMK 252010
RWRKY
KENTUCKY REGIONAL WEATHER ROUNDUP
NATIONAL WEATHER SERVICE LOUISVILLE KY
300 PM EST SUN FEB 25 2018

NOTE "FAIR" INDICATES FEW OR NO CLOUDS BELOW 12,000 FEET
WITH NO SIGNIFICANT WEATHER AND/OR OBSTRUCTIONS TO VISIBILITY.

KYZ001>023-026-027-061>063-070>075-252100-
WESTERN AND SOUTH CENTRAL KENTUCKY

CITY           SKY/WX    TMP DP  RH WIND       PRES   REMARKS
PADUCAH        FAIR      51  33  50 W5        30.09F
HENDERSON      FAIR      50  27  40 W6        30.12R
OWENSBORO      FAIR      48  33  56 W9        30.10F
HOPKINSVILLE   FAIR      51  36  55 N5        30.09R
BOWLING GREEN  FAIR      53  37  54 MISG      30.10R
GLASGOW        FAIR      52  37  56 NW3       30.10R
$$

KYZ024-025-028>034-038-045-046-053-252100-
NORTH CENTRAL KENTUCKY

CITY           SKY/WX    TMP DP  RH WIND       PRES   REMARKS
LOUISVILLE/SDF PTSUNNY   50  35  56 SW7       30.08F
LOUISVILLE/LOU FAIR      49  33  54 SW8       30.09S
FORT KNOX      FAIR      49  38  66 SW6       30.08F
$$

KYZ035>037-039>044-047>052-055>060-089>105-252100-
NORTHEAST KENTUCKY

CITY           SKY/WX    TMP DP  RH WIND       PRES   REMARKS
LEXINGTON      FAIR      50  38  63 W9        30.06F
COVINGTON      PTSUNNY   47  32  56 W9        30.04S
FRANKFORT      FAIR      50  33  52 SW7       30.07S
$$

KYZ054-064>069-076>088-106>120-252100-
SOUTHEAST KENTUCKY

CITY           SKY/WX    TMP DP  RH WIND       PRES   REMARKS
JACKSON        FAIR      53  40  61 VRB3      30.03F
LONDON         FAIR      52  43  71 CALM      30.04F
SOMERSET       FAIR      50  37  62 W5        30.08F
MIDDLESBORO    FAIR      57  47  68 NW5       30.05F
MONTICELLO     FAIR      51  41  68 NW7       30.10F
$$





USA.gov is the U.S. government's official web portal to all federal, state and local government web resources and services.